N4MGC Weather Reports


time (UTC)temp
F
wind
direction
speed
knots
gust
knots
rain 1hr
in
rain 24hr
in
rain mn
in
humidity
%
barometer
mb
20260906083604 77 79 0.0 0.0 0.00 0.00 0.00 95 1013.2
20260906083103 77 81 0.9 0.9 0.00 0.00 0.00 95 1013.1
20260906082559 77 92 0.0 0.9 0.00 0.00 0.00 96 1012.8
20260906082054 77 99 0.0 0.0 0.00 0.00 0.00 96 1012.5
20260906081550 77 107 0.0 0.0 0.00 0.00 0.00 95 1012.3
20260906081045 77 125 0.0 0.0 0.00 0.00 0.00 94 1012.1
20260906080542 77 123 0.0 0.0 0.00 0.00 0.00 94 1012.2
20260906080038 78 123 0.0 0.0 0.00 0.00 0.00 93 1012.2
20260906075538 78 123 0.0 0.0 0.00 0.00 0.00 92 1012.1
20260906075032 78 123 0.0 0.0 0.00 0.00 0.00 92 1012.1
20260906074527 78 96 0.0 0.0 0.00 0.00 0.00 91 1012.4
20260906074025 78 96 0.0 0.0 0.00 0.00 0.00 91 1012.6
20260906073521 78 95 0.0 0.0 0.00 0.00 0.00 93 1012.7
20260906073017 79 95 0.0 0.0 0.00 0.00 0.00 92 1012.6
20260906072512 79 95 0.0 0.0 0.00 0.00 0.00 90 1012.8
20260906072008 79 95 0.0 0.0 0.00 0.00 0.00 89 1012.8
20260906071504 78 85 0.0 0.0 0.00 0.00 0.00 92 1013.0
20260906070959 78 81 0.9 0.9 0.00 0.00 0.00 94 1012.9
20260906070455 78 96 0.0 0.0 0.00 0.00 0.00 95 1012.8
20260906065950 78 96 0.0 0.0 0.00 0.00 0.00 96 1012.6
20260906065449 78 65 0.0 0.0 0.00 0.00 0.00 97 1013.1
20260906064945 78 94 0.0 0.0 0.00 0.00 0.00 97 1012.8
20260906064441 78 97 0.0 0.0 0.00 0.00 0.00 97 1012.6
20260906063936 78 99 0.0 0.0 0.00 0.00 0.00 96 1012.9
20260906063432 79 98 0.0 0.0 0.00 0.00 0.00 96 1012.6
20260906062926 79 74 0.0 0.9 0.00 0.00 0.00 95 1012.4
20260906062421 79 106 0.0 0.0 0.00 0.00 0.00 94 1012.5
20260906061916 79 97 0.0 0.0 0.00 0.00 0.00 94 1012.5
20260906061412 79 96 0.0 0.0 0.00 0.00 0.00 93 1012.4
20260906060906 80 85 0.0 0.0 0.00 0.00 0.00 92 1012.6
20260906060404 80 132 0.0 0.0 0.00 0.00 0.00 91 1012.4
20260906055900 80 132 0.0 0.0 0.00 0.00 0.00 91 1012.3
20260906055355 80 112 0.9 0.9 0.00 0.00 0.00 91 1012.8
20260906054850 80 73 1.7 1.7 0.00 0.00 0.00 92 1012.9
20260906054345 80 78 0.9 0.9 0.00 0.00 0.00 93 1013.0
20260906053841 80 84 0.0 0.0 0.00 0.00 0.00 95 1013.3
20260906053337 80 80 0.9 0.9 0.00 0.00 0.00 95 1013.3
20260906052832 80 86 0.0 0.0 0.00 0.00 0.00 95 1013.4
20260906052329 80 72 0.0 0.0 0.00 0.00 0.00 96 1013.6
20260906051826 79 66 0.0 0.0 0.00 0.00 0.00 96 1013.4
20260906051325 79 35 0.0 0.0 0.00 0.00 0.00 96 1013.1
20260906050821 79 87 0.0 0.0 0.00 0.00 0.00 96 1013.1
20260906050316 79 112 0.0 0.0 0.00 0.00 0.00 96 1013.0
20260906045814 79 112 0.0 0.0 0.00 0.00 0.00 96 1013.1
20260906045309 79 158 0.0 0.0 0.00 0.00 0.00 96 1012.9
20260906044805 79 158 0.0 0.0 0.00 0.00 0.00 96 1012.9
20260906044300 80 158 0.0 0.0 0.00 0.00 0.00 96 1012.8
20260906043756 80 158 0.0 0.0 0.00 0.00 0.00 95 1012.9
20260906043252 80 158 0.0 0.0 0.00 0.00 0.00 95 1013.0
20260906042751 80 158 0.0 0.0 0.00 0.00 0.00 94 1013.0
20260906042250 80 159 0.0 0.0 0.00 0.00 0.00 94 1012.8
20260906041746 80 159 0.0 0.0 0.00 0.00 0.00 93 1012.7
20260906041241 80 159 0.0 0.0 0.00 0.00 0.00 94 1012.7
20260906040736 81 159 0.0 0.0 0.00 0.00 0.00 93 1012.7
20260906040231 81 159 0.0 0.0 0.00 0.00 0.00 92 1012.7
20260906035727 81 159 0.0 0.0 0.00 0.00 0.00 92 1012.6
20260906035223 81 159 0.0 0.0 0.00 0.00 0.00 92 1012.7
20260906034722 82 159 0.0 0.0 0.00 0.00 0.00 91 1012.6
20260906034217 82 160 0.0 0.0 0.00 0.00 0.00 91 1012.7
20260906033713 82 160 0.0 0.0 0.00 0.00 0.00 91 1012.6
20260906033213 82 150 0.0 0.0 0.00 0.00 0.00 91 1012.8
20260906032710 82 150 0.0 0.0 0.00 0.00 0.00 91 1012.5
20260906032209 82 150 0.0 0.0 0.00 0.00 0.00 90 1012.6
20260906031705 82 150 0.0 0.0 0.00 0.00 0.00 90 1012.6
20260906031200 82 150 0.0 0.0 0.00 0.00 0.00 90 1012.5
20260906030659 83 150 0.0 0.0 0.00 0.00 0.00 89 1012.5
20260906030155 83 150 0.0 0.0 0.00 0.00 0.00 89 1012.5
20260906025654 83 150 0.0 0.0 0.00 0.00 0.00 88 1012.7
20260906025148 83 149 0.0 0.0 0.00 0.00 0.00 88 1012.5
20260906024643 84 148 0.0 0.0 0.00 0.00 0.00 87 1012.3
20260906024136 84 145 0.0 0.0 0.00 0.00 0.00 87 1012.1
20260906023633 84 161 0.0 0.0 0.00 0.00 0.00 87 1012.5
20260906023132 84 160 0.0 0.0 0.00 0.00 0.00 86 1012.4
20260906022627 84 160 0.0 0.0 0.00 0.00 0.00 86 1012.4
20260906022123 84 160 0.0 0.0 0.00 0.00 0.00 86 1012.3
20260906021619 84 150 0.0 0.0 0.00 0.00 0.00 87 1012.2
20260906021118 85 159 0.0 0.0 0.00 0.00 0.00 87 1012.3
20260906020617 85 160 0.0 0.0 0.00 0.00 0.00 87 1012.1
20260906020112 85 159 0.0 0.0 0.00 0.00 0.00 86 1011.9
20260906015607 85 158 0.0 0.0 0.00 0.00 0.00 86 1012.1
20260906015105 85 159 0.0 0.0 0.00 0.00 0.00 86 1011.7
20260906014600 85 159 0.0 0.0 0.00 0.00 0.00 85 1011.7
20260906014056 86 160 0.0 0.0 0.00 0.00 0.00 85 1011.6
20260906013552 86 159 0.0 0.0 0.00 0.00 0.00 84 1011.4
20260906013047 86 158 0.0 0.9 0.00 0.00 0.00 84 1011.3
20260906012542 86 159 0.9 0.9 0.00 0.00 0.00 83 1011.5
20260906012041 86 158 0.9 0.9 0.00 0.00 0.00 83 1011.1
20260906011538 86 162 0.9 0.9 0.00 0.00 0.00 83 1011.0
20260906011037 86 162 0.0 0.0 0.00 0.00 0.00 82 1011.1
20260906010533 86 163 0.9 0.9 0.00 0.00 0.00 82 1011.2
20260906010029 86 158 0.0 0.0 0.00 0.00 0.00 82 1010.9
20260906005528 86 157 0.0 0.0 0.00 0.00 0.00 81 1011.2
20260906005027 86 122 0.0 0.0 0.00 0.00 0.00 81 1011.4
20260906004526 87 129 0.0 0.0 0.00 0.00 0.00 80 1011.3
20260906004022 87 125 0.0 0.0 0.00 0.00 0.00 78 1011.1
20260906003517 87 158 0.0 0.9 0.00 0.00 0.00 78 1010.8
20260906003013 87 131 0.0 0.0 0.00 0.00 0.00 78 1011.0
20260906002507 87 157 0.9 1.7 0.00 0.00 0.00 77 1011.1
20260906002002 87 157 0.0 0.0 0.00 0.00 0.00 77 1010.7
20260906001458 86 157 0.0 0.9 0.00 0.00 0.00 77 1011.0
20260906000952 86 156 0.0 0.0 0.00 0.00 0.00 77 1010.7
20260906000448 87 74 0.0 0.0 0.00 0.00 0.00 77 1010.7
20260905235942 87 74 0.0 0.0 0.00 0.00 0.00 76 1010.8
20260905235442 87 74 0.0 0.0 0.00 0.00 0.00 75 1010.7
20260905234937 88 74 0.0 0.0 0.00 0.00 0.00 75 1010.7
20260905234433 88 74 0.0 0.0 0.00 0.00 0.00 74 1010.7
20260905233927 89 74 0.0 0.0 0.00 0.00 0.00 73 1010.9
20260905233422 89 74 0.0 0.0 0.00 0.00 0.00 72 1010.8
20260905232921 89 74 0.0 0.0 0.00 0.00 0.00 71 1010.7
20260905232417 89 74 0.0 0.0 0.00 0.00 0.00 71 1010.8
20260905231912 90 74 0.0 0.0 0.00 0.00 0.00 71 1010.7
20260905231409 90 74 0.0 0.0 0.00 0.00 0.00 69 1010.7
20260905230905 90 74 0.0 0.0 0.00 0.00 0.00 69 1010.7
20260905230402 91 74 0.0 0.0 0.00 0.00 0.00 70 1010.8
20260905225855 91 74 0.0 0.0 0.00 0.00 0.00 69 1010.8
20260905225351 92 74 0.0 0.0 0.00 0.00 0.00 66 1010.7
20260905224846 93 74 0.0 0.0 0.00 0.00 0.00 63 1010.7
20260905224341 94 74 0.9 0.9 0.00 0.00 0.00 62 1010.6
20260905223836 95 74 0.0 0.0 0.00 0.00 0.00 61 1010.4
20260905223334 96 74 0.0 0.0 0.00 0.00 0.00 54 1010.6
20260905222829 96 67 0.0 0.0 0.00 0.00 0.00 56 1010.4
20260905222327 97 16 0.0 0.0 0.00 0.00 0.00 55 1010.5
20260905221824 97 86 0.0 0.9 0.00 0.00 0.00 52 1010.6
20260905221320 97 69 0.0 0.0 0.00 0.00 0.00 55 1010.4
20260905220816 97 67 0.9 1.7 0.00 0.00 0.00 56 1010.7
20260905220312 98 351 0.9 1.7 0.00 0.00 0.00 50 1010.6
20260905215811 99 83 0.9 0.9 0.00 0.00 0.00 48 1010.5
20260905215307 101 45 0.0 0.0 0.00 0.00 0.00 47 1010.6
20260905214803 100 75 0.0 0.0 0.00 0.00 0.00 47 1010.7
20260905214258 101 73 0.9 0.9 0.00 0.00 0.00 47 1010.6
20260905213753 100 68 0.0 0.0 0.00 0.00 0.00 49 1010.6
20260905213249 100 69 0.9 1.7 0.00 0.00 0.00 47 1010.7
20260905212744 99 42 0.9 0.9 0.00 0.00 0.00 49 1010.7
20260905212238 100 128 1.7 2.6 0.00 0.00 0.00 46 1010.9
20260905211737 102 308 0.9 0.9 0.00 0.00 0.00 45 1011.1
20260905211233 101 75 0.0 0.0 0.00 0.00 0.00 46 1011.2
20260905210730 100 201 0.9 0.9 0.00 0.00 0.00 45 1011.2
20260905210229 101 295 2.6 2.6 0.00 0.00 0.00 46 1011.2
20260905205728 100 93 0.0 0.0 0.00 0.00 0.00 49 1011.1
20260905205222 100 53 0.0 0.9 0.00 0.00 0.00 51 1011.4
20260905204717 99 229 0.9 0.9 0.00 0.00 0.00 51 1011.4
20260905204212 101 197 0.0 0.0 0.00 0.00 0.00 51 1011.3
20260905203712 101 94 0.9 0.9 0.00 0.00 0.00 49 1011.2
20260905203208 100 80 0.0 0.0 0.00 0.00 0.00 49 1011.4
20260905202703 101 207 0.9 1.7 0.00 0.00 0.00 48 1011.4
20260905202158 101 95 0.9 0.9 0.00 0.00 0.00 51 1011.4
20260905201654 101 354 0.9 0.9 0.00 0.00 0.00 46 1011.4
20260905201153 99 140 0.9 0.9 0.00 0.00 0.00 48 1011.3
20260905200649 100 145 0.0 0.9 0.00 0.00 0.00 49 1011.4
20260905200144 101 60 0.9 0.9 0.00 0.00 0.00 48 1011.5
20260905195642 101 112 1.7 1.7 0.00 0.00 0.00 48 1011.5
20260905195137 101 246 0.9 0.9 0.00 0.00 0.00 46 1011.6
20260905194632 100 181 0.0 0.0 0.00 0.00 0.00 51 1011.9
20260905194131 100 80 0.0 0.9 0.00 0.00 0.00 49 1012.0
20260905193627 99 85 0.9 0.9 0.00 0.00 0.00 51 1012.1
20260905193121 100 121 0.0 0.0 0.00 0.00 0.00 53 1012.1
20260905192617 100 111 0.9 0.9 0.00 0.00 0.00 50 1012.0
20260905192113 100 130 0.0 0.9 0.00 0.00 0.00 53 1012.3
20260905191612 99 80 0.0 0.0 0.00 0.00 0.00 51 1012.3
20260905191111 99 322 0.9 1.7 0.00 0.00 0.00 50 1012.5
20260905190609 99 75 0.0 0.9 0.00 0.00 0.00 50 1012.3
20260905190109 100 50 0.0 0.9 0.00 0.00 0.00 52 1012.7
20260905185608 100 111 0.9 0.9 0.00 0.00 0.00 51 1012.7
20260905185102 100 65 0.0 0.9 0.00 0.00 0.00 50 1012.7
20260905184557 100 116 0.0 0.0 0.00 0.00 0.00 52 1012.8
20260905184055 99 60 2.6 2.6 0.00 0.00 0.00 50 1012.8
20260905183550 98 105 0.0 0.9 0.00 0.00 0.00 51 1012.7
20260905183045 98 300 0.9 1.7 0.00 0.00 0.00 51 1013.1
20260905182544 98 87 1.7 1.7 0.00 0.00 0.00 51 1013.0
20260905182038 98 82 0.0 0.9 0.00 0.00 0.00 52 1013.1
20260905181533 98 80 0.0 0.9 0.00 0.00 0.00 53 1013.2
20260905181033 98 52 0.0 0.9 0.00 0.00 0.00 54 1013.4
20260905180527 98 49 0.0 0.0 0.00 0.00 0.00 56 1013.4
20260905180023 98 51 2.6 2.6 0.00 0.00 0.00 53 1013.6
20260905175522 98 98 0.0 0.9 0.00 0.00 0.00 53 1013.5
20260905175018 98 90 0.0 0.9 0.00 0.00 0.00 55 1013.7
20260905174513 99 206 0.0 0.9 0.00 0.00 0.00 52 1013.8
20260905174009 98 80 0.0 0.9 0.00 0.00 0.00 55 1013.8
20260905173505 97 224 0.9 0.9 0.00 0.00 0.00 56 1013.7
20260905173000 95 88 0.0 0.9 0.00 0.00 0.00 57 1013.8
20260905172458 95 71 0.0 0.9 0.00 0.00 0.00 57 1013.8
20260905171954 96 255 0.0 0.9 0.00 0.00 0.00 55 1014.0
20260905171450 97 83 0.0 0.9 0.00 0.00 0.00 54 1014.0
20260905170946 97 121 0.0 0.0 0.00 0.00 0.00 55 1014.1
20260905170442 96 187 0.0 0.0 0.00 0.00 0.00 56 1014.1
20260905165942 96 121 0.0 0.0 0.00 0.00 0.00 57 1014.2
20260905165437 96 114 0.0 0.0 0.00 0.00 0.00 58 1014.2
20260905164932 96 132 0.9 0.9 0.00 0.00 0.00 56 1014.3
20260905164426 96 248 0.9 0.9 0.00 0.00 0.00 57 1014.2
20260905163921 96 74 1.7 1.7 0.00 0.00 0.00 59 1014.2
20260905163418 95 87 0.9 0.9 0.00 0.00 0.00 63 1014.5
20260905162914 95 180 0.0 0.0 0.00 0.00 0.00 64 1014.3
20260905162408 95 68 0.0 0.0 0.00 0.00 0.00 63 1014.5
20260905161903 94 73 0.0 0.0 0.00 0.00 0.00 65 1014.4
20260905161403 93 89 0.9 0.9 0.00 0.00 0.00 64 1014.6
20260905160901 94 53 0.0 0.9 0.00 0.00 0.00 63 1014.5
20260905160355 93 65 0.9 0.9 0.00 0.00 0.00 67 1014.4
20260905155854 93 261 0.9 1.7 0.00 0.00 0.00 65 1014.7
20260905155349 93 78 1.7 2.6 0.00 0.00 0.00 68 1014.6
20260905154848 91 65 0.9 1.7 0.00 0.00 0.00 69 1014.6
20260905154344 91 69 0.9 1.7 0.00 0.00 0.00 70 1014.7
20260905153839 90 71 1.7 1.7 0.00 0.00 0.00 71 1014.7
20260905153336 90 60 0.9 0.9 0.00 0.00 0.00 72 1014.7
20260905152835 89 71 0.0 0.0 0.00 0.00 0.00 73 1014.8
20260905152334 89 62 1.7 2.6 0.00 0.00 0.00 74 1014.6
20260905151830 88 82 0.9 0.9 0.00 0.00 0.00 76 1015.0
20260905151325 88 75 0.0 0.9 0.00 0.00 0.00 76 1014.9
20260905150825 88 83 0.0 0.0 0.00 0.00 0.00 76 1015.0
20260905150319 87 74 0.9 1.7 0.00 0.00 0.00 79 1014.8
20260905145816 86 157 0.0 0.0 0.00 0.00 0.00 80 1015.0
20260905145311 85 87 0.9 1.7 0.00 0.00 0.00 82 1014.9
20260905144810 85 102 0.0 0.0 0.00 0.00 0.00 83 1014.8
20260905144306 85 43 0.9 0.9 0.00 0.00 0.00 84 1014.9
20260905143804 84 75 0.9 0.9 0.00 0.00 0.00 85 1015.0
20260905143259 84 116 0.0 0.0 0.00 0.00 0.00 85 1014.8
20260905142757 84 146 0.0 0.0 0.00 0.00 0.00 86 1014.6
20260905142252 83 80 0.0 0.0 0.00 0.00 0.00 88 1015.0
20260905141748 82 80 0.9 0.9 0.00 0.00 0.00 90 1014.9
20260905141244 82 133 0.0 0.0 0.00 0.00 0.00 90 1015.2
20260905140738 81 141 0.0 0.0 0.00 0.00 0.00 91 1014.8
20260905140233 80 100 0.0 0.0 0.00 0.00 0.00 93 1015.1
20260905135732 80 98 0.0 0.9 0.00 0.00 0.00 93 1015.2
20260905135228 80 72 0.0 0.0 0.00 0.00 0.00 94 1014.8
20260905134728 79 49 0.0 0.0 0.00 0.00 0.00 94 1014.9
20260905134227 79 106 0.0 0.0 0.00 0.00 0.00 96 1015.1
20260905133722 78 127 0.0 0.0 0.00 0.00 0.00 96 1015.0
20260905133217 78 91 0.9 0.9 0.00 0.00 0.00 96 1015.2
20260905132716 77 97 0.0 0.0 0.00 0.00 0.00 98 1015.2
20260905132212 76 92 0.0 0.0 0.00 0.00 0.00 99 1015.0
20260905131707 76 87 0.0 0.0 0.00 0.00 0.00 99 1015.2
20260905131202 75 84 0.0 0.0 0.00 0.00 0.00 99 1015.3
20260905130656 75 96 0.0 0.0 0.00 0.00 0.00 99 1015.2
20260905130156 75 98 0.0 0.0 0.00 0.00 0.00 99 1015.3
20260905125650 74 101 0.0 0.0 0.00 0.00 0.00 99 1015.3
20260905125146 74 99 0.0 0.0 0.00 0.00 0.00 99 1014.9
20260905124642 74 101 0.0 0.0 0.00 0.00 0.00 99 1015.1
20260905124138 73 108 0.0 0.0 0.00 0.00 0.00 99 1015.0
20260905123633 73 109 0.0 0.0 0.00 0.00 0.00 99 1015.0
20260905123130 73 109 0.0 0.0 0.00 0.00 0.00 99 1015.1
20260905122630 73 109 0.0 0.0 0.00 0.00 0.00 99 1015.1
20260905122125 73 108 0.0 0.0 0.00 0.00 0.00 99 1015.1
20260905121619 73 108 0.0 0.0 0.00 0.00 0.00 99 1015.1
20260905121115 72 108 0.0 0.0 0.00 0.00 0.00 99 1015.1
20260905120614 72 108 0.0 0.0 0.00 0.00 0.00 99 1015.0
20260905120109 72 110 0.0 0.0 0.00 0.00 0.00 99 1015.0
20260905115608 72 109 0.0 0.0 0.00 0.00 0.00 99 1014.7
20260905115103 72 110 0.0 0.0 0.00 0.00 0.00 99 1014.7
20260905114602 72 110 0.0 0.0 0.00 0.00 0.00 99 1014.8
20260905114101 72 110 0.0 0.0 0.00 0.00 0.00 99 1014.6
20260905113556 72 117 0.0 0.0 0.00 0.00 0.00 99 1014.6
20260905113052 72 117 0.0 0.0 0.00 0.00 0.00 99 1014.4
20260905112547 72 117 0.0 0.0 0.00 0.00 0.00 99 1014.2
20260905112042 72 117 0.0 0.0 0.00 0.00 0.00 99 1014.5
20260905111537 72 117 0.0 0.0 0.00 0.00 0.00 99 1014.3
20260905111036 72 117 0.0 0.0 0.00 0.00 0.00 99 1014.4
20260905110535 72 117 0.0 0.0 0.00 0.00 0.00 99 1014.5
20260905110030 73 117 0.0 0.0 0.00 0.00 0.00 99 1014.2
20260905105525 73 118 0.0 0.0 0.00 0.00 0.00 99 1014.5
20260905105024 73 114 0.0 0.0 0.00 0.00 0.00 99 1014.5
20260905104520 73 114 0.0 0.0 0.00 0.00 0.00 99 1014.4
20260905104019 73 114 0.0 0.0 0.00 0.00 0.00 99 1014.5
20260905103515 73 115 0.0 0.0 0.00 0.00 0.00 99 1014.4
20260905103011 73 115 0.0 0.0 0.00 0.00 0.00 99 1014.4
20260905102507 73 115 0.0 0.0 0.00 0.00 0.00 99 1014.3
20260905102003 73 115 0.0 0.0 0.00 0.00 0.00 99 1014.3
20260905101501 73 115 0.0 0.0 0.00 0.00 0.00 99 1014.4
20260905101000 73 115 0.0 0.0 0.00 0.00 0.00 99 1014.3
20260905100456 73 110 0.0 0.0 0.00 0.00 0.00 99 1014.3
20260905095954 73 110 0.0 0.0 0.00 0.00 0.00 99 1014.5
20260905095450 73 121 0.0 0.0 0.00 0.00 0.00 99 1014.0
20260905094945 73 121 0.0 0.0 0.00 0.00 0.00 99 1014.2
20260905094441 73 121 0.0 0.0 0.00 0.00 0.00 99 1014.1
20260905093939 73 121 0.0 0.0 0.00 0.00 0.00 99 1014.2
20260905093435 73 122 0.0 0.0 0.00 0.00 0.00 99 1014.4
20260905092930 73 122 0.0 0.0 0.00 0.00 0.00 99 1014.1
20260905092425 73 122 0.0 0.0 0.00 0.00 0.00 99 1014.0
20260905091920 73 121 0.0 0.0 0.00 0.00 0.00 99 1014.2
20260905091415 73 122 0.0 0.0 0.00 0.00 0.00 99 1014.1
20260905090914 73 109 0.0 0.0 0.00 0.00 0.00 99 1014.0
20260905090409 74 122 0.0 0.0 0.00 0.00 0.00 99 1013.9
20260905085908 74 122 0.0 0.0 0.00 0.00 0.00 99 1013.9
20260905085403 74 115 0.0 0.0 0.00 0.00 0.00 99 1014.1
20260905084859 74 109 0.0 0.0 0.00 0.00 0.00 99 1014.0
20260905084358 74 109 0.0 0.0 0.00 0.00 0.00 99 1013.6
20260905083853 74 128 0.0 0.0 0.00 0.00 0.00 99 1013.9